sat.trackr.live / text

‹ back to catalog

ONEWEB-0518

NORAD 54136 · 2022-138Z

PAYLOAD ACTIVE UNKNOWN

§ Identity

Operator
Country
UK
Launch date
2022-10-22
Launch site
SRILR
Launch vehicle
Mass (kg)
RCS (m²)

Purposes: comms

External: N2YO · Heavens-Above · Gunter

§ Orbital elements

Epoch: 2026-05-25T04:09:20.738880Z

Period
109.11 min
Inclination
87.9151°
Eccentricity
0.0001616
Mean motion
13.19725047 rev/d
Perigee alt
1,184.5 km
Apogee alt
1,187.0 km
Semi-major
7,563.9 km
B*
1.8926e-4
RAAN
309.5627°
Arg perigee
91.8765°
Mean anomaly
268.2553°
Rev number
17,379

§ Raw data

ONEWEB-05181 54136U 22138Z   26145.17315670  .00000089  00000+0  18926-3 0  99982 54136  87.9151 309.5627 0001616  91.8765 268.2553 13.19725047173791

JSON: /api/v1/satellites/54136 · /tle

For live sub-satellite position, see the globe view (requires WebGL).

§ Visibility from observer

Set your observer location to see the next 7 days of passes ≥ 10°. The values pass through the URL so the page stays shareable.

No JS? Fill the form by hand. The geolocation button needs JavaScript.